Showing default

GALILEO 29 (10C), 59598

Orbit data source: Space-Track

GALILEO 29 (10C), 59598 is a payload satellite owned by EU SPA (ESA) that was launched on Sun, 28 Apr 2024 UTC via an FALCON 9 launch vehicle from the Air Force Eastern Test Range (AFETR). Payload-class satellites include a variety of spacecraft equipped with specific instruments for various scientific and technological missions. These include communications satellites like Starlink; space stations such as the ISS; scientific satellites like the Hubble; Earth observation satellites from companies like Planet Labs, Umbra, and HawkEye 360; GPS; miniature CubeSats for education and research; and military/defense satellites.

Loading next visibility...
Identifier
59598, 2024-079A
Orbit
Active
Country
Flag of ESAESA
Related business
Manufacturer
OHB
Mission
Operational Civil Navigation
Bus & Motor
GALILEO, AOCS
Mass
733 kg wet, 660 kg dry
Launch date (UTC)
2024-04-28 (2 years ago)
Launch vehicle
FALCON 9
Launch site
Air Force Eastern Test Range (AFETR)
Object type
Payload
Rocket body
Debris
Shape & HBR
Box + 2 Pan, 7.3 m
Radar Cross Section
9.223 m², Small (<0.1 m²)

Expand to show TLE details & history
Last TLE update: 3 days ago

TLE from 3 days ago
0 GALILEO 29 (10C)
1 59598U 24079A   26170.44860191 -.00000013  00000-0  00000-0 0  9992
2 59598  55.1213 101.0165 0001534 302.7942 230.7595  1.70473881 13351
Epoch: 2026-06-19T10:45Z
TLE epoch observation values (Epoch: 2026-06-19T10:45:59.205Z)
Latitude
5.24851°
Longitude
-151.82162°
Altitude
23,224.824 km
Speed
3.669 km/s
True Right ascension
18h 29m 24s
True Declination
5° 14' 28"
Sunlit
Object was in daylight at epoch
Visualization orbit readout
Latitude
Unknown
Longitude
Unknown
Altitude
Unknown
Speed
Unknown
Apparent Right ascension
Unknown
Apparent Declination
Unknown
Sunlit
N/A
Visualization observer readout
Local Sidereal Time
21:41:03
Azimuth
Unknown
Elevation
Unknown
Doppler factor
Unknown
Orbital elements
Apogee altitude
23,226.742 km
Perigee altitude
23,217.66 km
Semi-major axis
29,600.338 km
Eccentricity
0.00015
Inclination
55.1213°
RAAN
101.0165°
Arg. of periapsis
302.7942°
True anomaly
230.74589°
Mean anomaly
230.7595°
Eccentric anomaly
230.75269°
Mean motion
0.42619 °/min
Orbital period
844.7 mins
BSTAR
0
Loading maneuver chart data...
Computing Atmospheric mass density...
Loading historical data...
Loading historical data...
Loading historical data...
Loading historical data...
Loading historical data...
Loading historical data...
Loading historical data...
Other satellites on launch #79 in the year 2024 (2024-04-28 UTC)

Documentation

Showing up to 5 results
|